Location: Prague
(50.0830°N, 14.4670°E)
Time: 03:24:22
(UTC+01:00)

AO-7 - Pass Details

Date: 15 December 2021
Orbit: 1440 x 1459 km, 101.9° (Epoch: 28 January)

Event Time Altitude Azimuth Distance (km) Brightness Sun altitude
Rises 03:07:10 0° 24° (NNE) 4,554 ? -44.5°
Reaches altitude 10° 03:10:32 10° 36° (NE) 3,574 ? -44.0°
Maximum altitude 03:17:27 28° 92° (E) 2,447 ? -43.0°
Drops below altitude 10° 03:24:20 10° 149° (SSE) 3,569 ? -41.9°
Sets 03:27:40 0° 161° (SSE) 4,545 ? -41.4°
